Meteo pe oră la Almaguer

Astăzi, 23 Ianuarie, Sâmbătă

Timp Temperatura Precipitaţii Vânt Presiune Umiditate
00:00 +13°C° 0.1 mm 0 m/s 593 mmHg 97%
01:00 +13°C° 0.1 mm 0 m/s 592 mmHg 97%
02:00 +13°C° 0.1 mm 0 m/s 592 mmHg 97%
03:00 +13°C° 0.1 mm 0 m/s 592 mmHg 97%
04:00 +12°C° 0.1 mm 0 m/s 591 mmHg 97%
05:00 +12°C° 0 mm 0 m/s 592 mmHg 96%
06:00 +13°C° 0 mm 1 m/s 592 mmHg 96%
07:00 +13°C° 0 mm 1 m/s 592 mmHg 96%
08:00 +15°C° 0.2 mm 1 m/s 593 mmHg 92%
09:00 +16°C° 0.2 mm 1 m/s 594 mmHg 89%
10:00 +19°C° 0.2 mm 1 m/s 595 mmHg 85%
11:00 +19°C° 0.8 mm 1 m/s 594 mmHg 84%
12:00 +20°C° 0.8 mm 1 m/s 594 mmHg 82%
13:00 +21°C° 0.8 mm 1 m/s 594 mmHg 80%
14:00 +20°C° 1.4 mm 1 m/s 593 mmHg 83%
15:00 +20°C° 1.4 mm 1 m/s 592 mmHg 86%
16:00 +17°C° 1.4 mm 0 m/s 592 mmHg 88%
17:00 +16°C° 1.2 mm 0 m/s 592 mmHg 90%
18:00 +16°C° 1.2 mm 1 m/s 592 mmHg 92%
19:00 +15°C° 1.2 mm 1 m/s 592 mmHg 94%
20:00 +15°C° 0.6 mm 1 m/s 592 mmHg 94%
21:00 +15°C° 0.6 mm 1 m/s 592 mmHg 94%
22:00 +15°C° 0.6 mm 1 m/s 593 mmHg 94%
23:00 +14°C° 0.2 mm 1 m/s 592 mmHg 94%

Mâine, 24 Ianuarie, Duminică

Timp Temperatura Precipitaţii Vânt Presiune Umiditate
00:00 +14°C° 0.2 mm 1 m/s 592 mmHg 94%
01:00 +14°C° 0.2 mm 1 m/s 592 mmHg 94%
02:00 +14°C° 0.1 mm 1 m/s 591 mmHg 94%
03:00 +13°C° 0.1 mm 1 m/s 591 mmHg 95%
04:00 +13°C° 0.1 mm 1 m/s 591 mmHg 95%
05:00 +13°C° 0 mm 1 m/s 591 mmHg 94%
06:00 +14°C° 0 mm 1 m/s 592 mmHg 94%
07:00 +14°C° 0 mm 1 m/s 592 mmHg 93%
08:00 +15°C° 0.1 mm 1 m/s 593 mmHg 89%
09:00 +18°C° 0.1 mm 1 m/s 594 mmHg 85%
10:00 +19°C° 0.1 mm 1 m/s 594 mmHg 80%
11:00 +20°C° 0.5 mm 1 m/s 594 mmHg 80%
12:00 +20°C° 0.5 mm 1 m/s 594 mmHg 80%
13:00 +21°C° 0.5 mm 1 m/s 593 mmHg 79%
14:00 +20°C° 1.3 mm 1 m/s 593 mmHg 81%
15:00 +20°C° 1.3 mm 1 m/s 592 mmHg 83%
16:00 +20°C° 1.3 mm 1 m/s 592 mmHg 85%
17:00 +19°C° 1.1 mm 1 m/s 592 mmHg 88%
18:00 +16°C° 1.1 mm 1 m/s 591 mmHg 91%
19:00 +15°C° 1.1 mm 1 m/s 591 mmHg 94%
20:00 +15°C° 0.4 mm 1 m/s 592 mmHg 93%
21:00 +15°C° 0.4 mm 1 m/s 592 mmHg 93%
22:00 +14°C° 0.4 mm 1 m/s 592 mmHg 93%
23:00 +14°C° 0 mm 1 m/s 592 mmHg 93%

Poimâine, 25 Ianuarie, Luni

Timp Temperatura Precipitaţii Vânt Presiune Umiditate
00:00 +14°C° 0 mm 1 m/s 591 mmHg 93%
01:00 +14°C° 0 mm 1 m/s 591 mmHg 94%
02:00 +13°C° 0.1 mm 1 m/s 591 mmHg 94%
03:00 +13°C° 0.1 mm 1 m/s 590 mmHg 94%
04:00 +13°C° 0.1 mm 1 m/s 590 mmHg 94%
05:00 +13°C° 0.2 mm 1 m/s 591 mmHg 94%
06:00 +14°C° 0.2 mm 1 m/s 591 mmHg 93%
07:00 +14°C° 0.2 mm 1 m/s 592 mmHg 93%
08:00 +15°C° 0.1 mm 1 m/s 592 mmHg 90%
09:00 +16°C° 0.1 mm 1 m/s 593 mmHg 86%
10:00 +19°C° 0.1 mm 1 m/s 594 mmHg 83%
11:00 +20°C° 0.3 mm 1 m/s 594 mmHg 78%
12:00 +21°C° 0.3 mm 1 m/s 594 mmHg 74%
13:00 +22°C° 0.3 mm 1 m/s 594 mmHg 70%
14:00 +22°C° 1.2 mm 1 m/s 593 mmHg 73%
15:00 +21°C° 1.2 mm 1 m/s 592 mmHg 77%
16:00 +21°C° 1.2 mm 1 m/s 592 mmHg 80%
17:00 +19°C° 1.4 mm 1 m/s 592 mmHg 85%
18:00 +18°C° 1.4 mm 1 m/s 591 mmHg 89%
19:00 +16°C° 1.4 mm 1 m/s 591 mmHg 94%
20:00 +15°C° 0.5 mm 1 m/s 591 mmHg 93%
21:00 +15°C° 0.5 mm 1 m/s 592 mmHg 93%
22:00 +15°C° 0.5 mm 1 m/s 592 mmHg 92%
23:00 +14°C° 0.1 mm 1 m/s 592 mmHg 93%

26 Ianuarie, Marţi

Timp Temperatura Precipitaţii Vânt Presiune Umiditate
00:00 +14°C° 0.1 mm 1 m/s 591 mmHg 93%
01:00 +14°C° 0.1 mm 1 m/s 591 mmHg 93%
02:00 +14°C° 0.2 mm 1 m/s 591 mmHg 94%
03:00 +14°C° 0.2 mm 1 m/s 591 mmHg 94%
04:00 +13°C° 0.2 mm 1 m/s 591 mmHg 94%
05:00 +14°C° 0 mm 1 m/s 591 mmHg 93%
06:00 +14°C° 0 mm 1 m/s 591 mmHg 93%
07:00 +14°C° 0 mm 1 m/s 592 mmHg 92%
08:00 +16°C° 0.1 mm 1 m/s 593 mmHg 88%
09:00 +18°C° 0.1 mm 1 m/s 594 mmHg 84%
10:00 +20°C° 0.1 mm 1 m/s 595 mmHg 80%
11:00 +20°C° 0.7 mm 1 m/s 594 mmHg 80%
12:00 +21°C° 0.7 mm 1 m/s 594 mmHg 79%
13:00 +21°C° 0.7 mm 1 m/s 594 mmHg 79%
14:00 +21°C° 2.1 mm 1 m/s 593 mmHg 82%
15:00 +20°C° 2.1 mm 1 m/s 592 mmHg 85%
16:00 +20°C° 2.1 mm 1 m/s 592 mmHg 88%
17:00 +17°C° 1.4 mm 0 m/s 592 mmHg 91%
18:00 +16°C° 1.4 mm 0 m/s 591 mmHg 93%
19:00 +14°C° 1.4 mm 0 m/s 591 mmHg 95%
20:00 +14°C° 0.7 mm 0 m/s 592 mmHg 95%
21:00 +14°C° 0.7 mm 0 m/s 592 mmHg 95%
22:00 +15°C° 0.7 mm 1 m/s 592 mmHg 95%
23:00 +14°C° 0.4 mm 1 m/s 592 mmHg 95%

27 Ianuarie, Miercuri

Timp Temperatura Precipitaţii Vânt Presiune Umiditate
00:00 +14°C° 0.4 mm 1 m/s 592 mmHg 94%
01:00 +14°C° 0.4 mm 1 m/s 592 mmHg 94%
02:00 +14°C° 0.2 mm 1 m/s 591 mmHg 94%
03:00 +13°C° 0.2 mm 1 m/s 591 mmHg 94%
04:00 +13°C° 0.2 mm 1 m/s 591 mmHg 94%
05:00 +13°C° 0 mm 1 m/s 591 mmHg 94%
06:00 +13°C° 0 mm 1 m/s 592 mmHg 93%
07:00 +13°C° 0 mm 1 m/s 592 mmHg 93%
08:00 +16°C° 0 mm 1 m/s 593 mmHg 86%
09:00 +19°C° 0 mm 1 m/s 594 mmHg 79%
10:00 +21°C° 0 mm 1 m/s 596 mmHg 72%
11:00 +21°C° 0.4 mm 1 m/s 595 mmHg 72%
12:00 +22°C° 0.4 mm 1 m/s 595 mmHg 71%
13:00 +22°C° 0.4 mm 1 m/s 594 mmHg 71%
14:00 +22°C° 1.3 mm 1 m/s 594 mmHg 75%
15:00 +21°C° 1.3 mm 1 m/s 593 mmHg 78%
16:00 +21°C° 1.3 mm 1 m/s 592 mmHg 82%
17:00 +19°C° 1.2 mm 1 m/s 592 mmHg 86%
18:00 +18°C° 1.2 mm 1 m/s 592 mmHg 90%
19:00 +15°C° 1.2 mm 1 m/s 591 mmHg 95%
20:00 +15°C° 0.4 mm 1 m/s 592 mmHg 94%
21:00 +15°C° 0.4 mm 1 m/s 592 mmHg 94%
22:00 +14°C° 0.4 mm 1 m/s 592 mmHg 94%
23:00 +14°C° 0.1 mm 1 m/s 592 mmHg 94%

28 Ianuarie, Joi

Timp Temperatura Precipitaţii Vânt Presiune Umiditate
00:00 +14°C° 0.1 mm 1 m/s 592 mmHg 93%
01:00 +14°C° 0.1 mm 1 m/s 592 mmHg 93%
02:00 +13°C° 0 mm 1 m/s 591 mmHg 93%
03:00 +13°C° 0 mm 1 m/s 591 mmHg 93%
04:00 +13°C° 0 mm 1 m/s 591 mmHg 93%
05:00 +13°C° 0 mm 1 m/s 591 mmHg 92%
06:00 +13°C° 0 mm 1 m/s 591 mmHg 91%
07:00 +13°C° 0 mm 1 m/s 592 mmHg 90%
08:00 +15°C° 0 mm 1 m/s 593 mmHg 82%
09:00 +19°C° 0 mm 1 m/s 594 mmHg 75%
10:00 +21°C° 0 mm 1 m/s 595 mmHg 67%
11:00 +22°C° 0.1 mm 1 m/s 595 mmHg 67%
12:00 +22°C° 0.1 mm 1 m/s 594 mmHg 66%
13:00 +22°C° 0.1 mm 1 m/s 594 mmHg 66%
Arată mai mult

Formular de consimțământ

Meteoprog și furnizorii noștri de servicii pot stoca și accesa date personale, precum cookies, identificatori de dispozitiv sau alte tehnologii similare pe dispozitivul dumneavoastră și procesa astfel de date pentru a personaliza conținutul și reclamele, dar și pentru a oferi caracteristici de social media și pentru a analiza traficul.

  • Stocarea și/sau accesarea informațiilor pe dispozitivul dumneavoastră

    Cookies, identificatori de dispozitiv sau alte informații pot fi stocate sau accesate pe dispozitiv în scopurile indicate mai sus.

  • Reclame și conținut personalizat, evaluarea reclamelor și a conținutului, informații despre audiențe și dezvoltarea produselor

    Reclamele și conținutul pot fi personalizate pe baza unui profil. Pot fi adăugate date suplimentare pentru a personaliza mai bine reclamele și conținutul. Performanța reclamelor și conținutului poate fi măsurată. Pot fi obținute informații despre utilizatorii care au văzut reclamele și conținutul. Aceste date pot fi utilizate pentru a dezvolta sau îmbunătăți experiența utilizatorilor, sistemele și software-ul.

Dând clic pe ‘Sunt de acord’, permiteți utilizarea cookie-urilor menționate, a identificatorilor de dispozitiv, balizelor web sau altor tehnologii similare. Setările pot fi modificate din browser-ul dispozitivului dumneavoastră.

În anumite scopuri, interesele legitime pot prima asupra consimțământului. Puteți citi mai multe informații în acest sens în Politica privind Confidențialitatea Datelor și Cookie.